Wetterdaten: Freitag, 27.11.2015
Datum Zeit Temp. Auen Feucht Auen Luftdruck Regen Richtung Richtung Windben
27.11.2015 00:00 1,6 C 92 % 1021,4 hPa 0,0 mm W 270 1,6 km/h (1 Bft)
27.11.2015 00:05 1,6 C 92 % 1021,5 hPa 0,0 mm W 270 1,6 km/h (1 Bft)
27.11.2015 00:10 1,6 C 91 % 1021,5 hPa 0,0 mm W 270 1,6 km/h (1 Bft)
27.11.2015 00:15 1,6 C 92 % 1021,5 hPa 0,0 mm N 0 0,0 km/h (0 Bft)
27.11.2015 00:20 1,6 C 91 % 1021,5 hPa 0,0 mm N 0 0,0 km/h (0 Bft)
27.11.2015 00:25 1,6 C 91 % 1021,6 hPa 0,0 mm W 270 3,2 km/h (1 Bft)
27.11.2015 00:30 1,6 C 91 % 1021,6 hPa 0,0 mm N 0 0,0 km/h (0 Bft)
27.11.2015 00:35 1,6 C 91 % 1021,6 hPa 0,0 mm W 270 1,6 km/h (1 Bft)
27.11.2015 00:40 1,6 C 91 % 1021,5 hPa 0,0 mm W 270 1,6 km/h (1 Bft)
27.11.2015 00:45 1,6 C 92 % 1021,6 hPa 0,0 mm W 270 3,2 km/h (1 Bft)
27.11.2015 00:50 1,6 C 91 % 1021,6 hPa 0,0 mm W 270 1,6 km/h (1 Bft)
27.11.2015 00:55 1,6 C 91 % 1021,5 hPa 0,0 mm W 270 1,6 km/h (1 Bft)
27.11.2015 01:00 1,6 C 91 % 1021,6 hPa 0,0 mm N 0 0,0 km/h (0 Bft)
27.11.2015 01:05 1,6 C 92 % 1021,6 hPa 0,0 mm W 270 1,6 km/h (1 Bft)
27.11.2015 01:10 1,6 C 91 % 1021,5 hPa 0,0 mm W 270 1,6 km/h (1 Bft)
27.11.2015 01:15 1,6 C 91 % 1021,6 hPa 0,0 mm N 0 0,0 km/h (0 Bft)
27.11.2015 01:20 1,6 C 91 % 1021,6 hPa 0,0 mm W 270 1,6 km/h (1 Bft)
27.11.2015 01:25 1,6 C 92 % 1021,7 hPa 0,0 mm N 0 0,0 km/h (0 Bft)
27.11.2015 01:30 1,6 C 92 % 1021,8 hPa 0,0 mm N 0 0,0 km/h (0 Bft)
27.11.2015 01:35 1,6 C 92 % 1021,8 hPa 0,0 mm N 0 0,0 km/h (0 Bft)
27.11.2015 01:40 1,6 C 92 % 1021,8 hPa 0,0 mm N 0 0,0 km/h (0 Bft)
27.11.2015 01:45 1,6 C 92 % 1021,9 hPa 0,0 mm N 0 0,0 km/h (0 Bft)
27.11.2015 01:50 1,6 C 92 % 1021,9 hPa 0,0 mm N 0 0,0 km/h (0 Bft)
27.11.2015 01:55 1,6 C 92 % 1021,9 hPa 0,0 mm N 0 0,0 km/h (0 Bft)
27.11.2015 02:00 1,6 C 92 % 1021,9 hPa 0,0 mm N 0 0,0 km/h (0 Bft)
27.11.2015 02:05 1,6 C 92 % 1021,8 hPa 0,0 mm W 270 3,2 km/h (1 Bft)
27.11.2015 02:10 1,6 C 92 % 1021,8 hPa 0,0 mm W 270 3,2 km/h (1 Bft)
27.11.2015 02:15 1,6 C 92 % 1021,8 hPa 0,0 mm W 270 1,6 km/h (1 Bft)
27.11.2015 02:20 1,6 C 92 % 1021,8 hPa 0,0 mm W 270 1,6 km/h (1 Bft)
27.11.2015 02:25 1,6 C 92 % 1021,7 hPa 0,0 mm N 0 0,0 km/h (0 Bft)
27.11.2015 02:30 1,6 C 92 % 1021,7 hPa 0,0 mm N 0 0,0 km/h (0 Bft)
27.11.2015 02:35 1,6 C 92 % 1021,7 hPa 0,0 mm N 0 0,0 km/h (0 Bft)
27.11.2015 02:40 1,6 C 92 % 1021,7 hPa 0,0 mm N 0 0,0 km/h (0 Bft)
27.11.2015 02:45 1,6 C 92 % 1021,6 hPa 0,0 mm N 0 0,0 km/h (0 Bft)
27.11.2015 02:50 1,6 C 92 % 1021,6 hPa 0,0 mm N 0 0,0 km/h (0 Bft)
27.11.2015 02:55 1,6 C 92 % 1021,5 hPa 0,0 mm N 0 0,0 km/h (0 Bft)
27.11.2015 03:00 1,5 C 92 % 1021,5 hPa 0,0 mm N 0 0,0 km/h (0 Bft)
27.11.2015 03:05 1,5 C 92 % 1021,5 hPa 0,0 mm N 0 0,0 km/h (0 Bft)
27.11.2015 03:10 1,5 C 92 % 1021,5 hPa 0,0 mm N 0 0,0 km/h (0 Bft)
27.11.2015 03:15 1,4 C 92 % 1021,4 hPa 0,0 mm N 0 0,0 km/h (0 Bft)
27.11.2015 03:20 1,4 C 92 % 1021,3 hPa 0,0 mm N 0 0,0 km/h (0 Bft)
27.11.2015 03:25 1,4 C 92 % 1021,3 hPa 0,0 mm N 0 0,0 km/h (0 Bft)
27.11.2015 03:30 1,4 C 92 % 1021,3 hPa 0,0 mm N 0 0,0 km/h (0 Bft)
27.11.2015 03:35 1,4 C 92 % 1021,3 hPa 0,0 mm N 0 0,0 km/h (0 Bft)
27.11.2015 03:40 1,4 C 92 % 1021,3 hPa 0,0 mm N 0 0,0 km/h (0 Bft)
27.11.2015 03:45 1,4 C 92 % 1021,3 hPa 0,0 mm N 0 0,0 km/h (0 Bft)
27.11.2015 03:50 1,3 C 92 % 1021,2 hPa 0,0 mm N 0 0,0 km/h (0 Bft)
27.11.2015 03:55 1,3 C 92 % 1021,3 hPa 0,0 mm N 0 0,0 km/h (0 Bft)
27.11.2015 04:00 1,3 C 92 % 1021,2 hPa 0,0 mm N 0 0,0 km/h (0 Bft)
27.11.2015 04:05 1,3 C 92 % 1021,2 hPa 0,0 mm N 0 0,0 km/h (0 Bft)
27.11.2015 04:10 1,3 C 92 % 1021,2 hPa 0,0 mm N 0 0,0 km/h (0 Bft)
27.11.2015 04:15 1,3 C 92 % 1021,2 hPa 0,0 mm N 0 0,0 km/h (0 Bft)
27.11.2015 04:20 1,3 C 92 % 1021,2 hPa 0,0 mm N 0 0,0 km/h (0 Bft)
27.11.2015 04:25 1,3 C 92 % 1021,1 hPa 0,0 mm N 0 0,0 km/h (0 Bft)
27.11.2015 04:30 1,2 C 92 % 1021,1 hPa 0,0 mm W 270 1,6 km/h (1 Bft)
27.11.2015 04:35 1,2 C 92 % 1021,1 hPa 0,0 mm W 270 1,6 km/h (1 Bft)
27.11.2015 04:40 1,2 C 92 % 1021,1 hPa 0,0 mm N 0 0,0 km/h (0 Bft)
27.11.2015 04:45 1,2 C 92 % 1021,0 hPa 0,0 mm W 270 1,6 km/h (1 Bft)
27.11.2015 04:50 1,2 C 92 % 1021,1 hPa 0,0 mm W 270 3,2 km/h (1 Bft)
27.11.2015 04:55 1,2 C 92 % 1021,0 hPa 0,0 mm W 270 1,6 km/h (1 Bft)
27.11.2015 05:00 1,2 C 92 % 1021,1 hPa 0,0 mm W 270 1,6 km/h (1 Bft)
27.11.2015 05:05 1,2 C 92 % 1021,1 hPa 0,0 mm W 270 1,6 km/h (1 Bft)
27.11.2015 05:10 1,2 C 92 % 1021,0 hPa 0,0 mm W 270 1,6 km/h (1 Bft)
27.11.2015 05:15 1,2 C 92 % 1020,9 hPa 0,0 mm W 270 1,6 km/h (1 Bft)
27.11.2015 05:20 1,2 C 92 % 1020,9 hPa 0,0 mm N 0 0,0 km/h (0 Bft)
27.11.2015 05:25 1,2 C 92 % 1020,9 hPa 0,0 mm W 270 1,6 km/h (1 Bft)
27.11.2015 05:30 1,2 C 92 % 1020,9 hPa 0,0 mm W 270 1,6 km/h (1 Bft)
27.11.2015 05:35 1,2 C 92 % 1020,9 hPa 0,0 mm W 270 3,2 km/h (1 Bft)
27.11.2015 05:40 1,2 C 92 % 1020,9 hPa 0,0 mm N 0 0,0 km/h (0 Bft)
27.11.2015 05:45 1,2 C 92 % 1021,0 hPa 0,0 mm W 270 1,6 km/h (1 Bft)
27.11.2015 05:50 1,2 C 92 % 1020,9 hPa 0,0 mm N 0 0,0 km/h (0 Bft)
27.11.2015 05:55 1,2 C 92 % 1021,0 hPa 0,0 mm N 0 0,0 km/h (0 Bft)
27.11.2015 06:00 1,2 C 92 % 1020,9 hPa 0,0 mm N 0 0,0 km/h (0 Bft)
27.11.2015 06:05 1,2 C 92 % 1021,0 hPa 0,0 mm W 270 1,6 km/h (1 Bft)
27.11.2015 06:10 1,1 C 92 % 1021,0 hPa 0,0 mm N 0 0,0 km/h (0 Bft)
27.11.2015 06:15 1,1 C 92 % 1021,0 hPa 0,0 mm N 0 0,0 km/h (0 Bft)
27.11.2015 06:20 1,1 C 92 % 1021,0 hPa 0,0 mm N 0 0,0 km/h (0 Bft)
27.11.2015 06:25 1,1 C 92 % 1021,0 hPa 0,0 mm N 0 0,0 km/h (0 Bft)
27.11.2015 06:30 1,1 C 92 % 1021,1 hPa 0,0 mm N 0 0,0 km/h (0 Bft)
27.11.2015 06:35 1,1 C 92 % 1021,1 hPa 0,0 mm N 0 0,0 km/h (0 Bft)
27.11.2015 06:40 1,1 C 92 % 1021,0 hPa 0,0 mm N 0 0,0 km/h (0 Bft)
27.11.2015 06:45 1,1 C 92 % 1021,0 hPa 0,0 mm N 0 0,0 km/h (0 Bft)
27.11.2015 06:50 1,1 C 92 % 1021,1 hPa 0,0 mm N 0 0,0 km/h (0 Bft)
27.11.2015 06:55 1,1 C 92 % 1021,0 hPa 0,0 mm N 0 0,0 km/h (0 Bft)
27.11.2015 07:00 1,1 C 92 % 1021,0 hPa 0,0 mm N 0 0,0 km/h (0 Bft)
27.11.2015 07:05 1,0 C 92 % 1021,1 hPa 0,0 mm N 0 0,0 km/h (0 Bft)
27.11.2015 07:10 1,0 C 92 % 1021,0 hPa 0,0 mm N 0 0,0 km/h (0 Bft)
27.11.2015 07:15 1,0 C 92 % 1021,0 hPa 0,0 mm N 0 0,0 km/h (0 Bft)
27.11.2015 07:20 1,0 C 92 % 1021,1 hPa 0,0 mm N 0 0,0 km/h (0 Bft)
27.11.2015 07:25 1,0 C 92 % 1021,1 hPa 0,0 mm N 0 0,0 km/h (0 Bft)
27.11.2015 07:30 1,0 C 92 % 1021,1 hPa 0,0 mm N 0 0,0 km/h (0 Bft)
27.11.2015 07:35 1,0 C 92 % 1021,0 hPa 0,0 mm N 0 0,0 km/h (0 Bft)
27.11.2015 07:40 1,0 C 92 % 1021,0 hPa 0,0 mm W 270 1,6 km/h (1 Bft)
27.11.2015 07:45 1,0 C 92 % 1021,0 hPa 0,0 mm N 0 0,0 km/h (0 Bft)
27.11.2015 07:50 1,0 C 92 % 1021,1 hPa 0,0 mm W 270 3,2 km/h (1 Bft)
27.11.2015 07:55 1,1 C 92 % 1021,0 hPa 0,0 mm N 0 0,0 km/h (0 Bft)
27.11.2015 08:00 1,1 C 92 % 1021,0 hPa 0,0 mm N 0 0,0 km/h (0 Bft)
27.11.2015 08:05 1,1 C 92 % 1021,0 hPa 0,0 mm W 270 1,6 km/h (1 Bft)
27.11.2015 08:10 1,1 C 92 % 1021,0 hPa 0,0 mm W 270 1,6 km/h (1 Bft)
27.11.2015 08:15 1,1 C 92 % 1020,9 hPa 0,0 mm W 270 1,6 km/h (1 Bft)
27.11.2015 08:20 1,1 C 92 % 1020,9 hPa 0,0 mm W 270 1,6 km/h (1 Bft)
27.11.2015 08:25 1,1 C 92 % 1020,9 hPa 0,0 mm N 0 0,0 km/h (0 Bft)
27.11.2015 08:30 1,1 C 92 % 1020,9 hPa 0,0 mm W 270 1,6 km/h (1 Bft)
27.11.2015 08:35 1,1 C 92 % 1020,9 hPa 0,0 mm N 0 0,0 km/h (0 Bft)
27.11.2015 08:40 1,2 C 92 % 1020,9 hPa 0,0 mm N 0 0,0 km/h (0 Bft)
27.11.2015 08:45 1,2 C 92 % 1020,9 hPa 0,0 mm N 0 0,0 km/h (0 Bft)
27.11.2015 08:50 1,2 C 92 % 1020,9 hPa 0,0 mm N 0 0,0 km/h (0 Bft)
27.11.2015 08:55 1,2 C 92 % 1020,8 hPa 0,0 mm N 0 0,0 km/h (0 Bft)
27.11.2015 09:00 1,2 C 92 % 1020,9 hPa 0,0 mm N 0 0,0 km/h (0 Bft)
27.11.2015 09:05 1,2 C 92 % 1020,9 hPa 0,0 mm N 0 0,0 km/h (0 Bft)
27.11.2015 09:10 1,2 C 92 % 1020,7 hPa 0,0 mm N 0 0,0 km/h (0 Bft)
27.11.2015 09:15 1,3 C 92 % 1020,7 hPa 0,0 mm N 0 0,0 km/h (0 Bft)
27.11.2015 09:20 1,3 C 92 % 1020,7 hPa 0,0 mm N 0 0,0 km/h (0 Bft)
27.11.2015 09:25 1,3 C 92 % 1020,7 hPa 0,0 mm N 0 0,0 km/h (0 Bft)
27.11.2015 09:30 1,3 C 92 % 1020,7 hPa 0,0 mm N 0 0,0 km/h (0 Bft)
27.11.2015 09:35 1,4 C 92 % 1020,7 hPa 0,0 mm N 0 0,0 km/h (0 Bft)
27.11.2015 09:40 1,4 C 92 % 1020,7 hPa 0,0 mm N 0 0,0 km/h (0 Bft)
27.11.2015 09:45 1,5 C 92 % 1020,6 hPa 0,0 mm N 0 0,0 km/h (0 Bft)
27.11.2015 09:50 1,6 C 92 % 1020,6 hPa 0,0 mm N 0 0,0 km/h (0 Bft)
27.11.2015 09:55 1,7 C 92 % 1020,6 hPa 0,0 mm N 0 0,0 km/h (0 Bft)
27.11.2015 10:00 1,7 C 92 % 1020,5 hPa 0,0 mm N 0 0,0 km/h (0 Bft)
27.11.2015 10:05 1,7 C 92 % 1020,6 hPa 0,0 mm N 0 0,0 km/h (0 Bft)
27.11.2015 10:10 1,8 C 92 % 1020,6 hPa 0,0 mm N 0 0,0 km/h (0 Bft)
27.11.2015 10:15 1,9 C 92 % 1020,5 hPa 0,0 mm N 0 0,0 km/h (0 Bft)
27.11.2015 10:20 1,9 C 92 % 1020,5 hPa 0,0 mm W 270 1,6 km/h (1 Bft)
27.11.2015 10:25 1,9 C 92 % 1020,5 hPa 0,0 mm N 0 0,0 km/h (0 Bft)
27.11.2015 10:30 2,0 C 92 % 1020,5 hPa 0,0 mm W 270 1,6 km/h (1 Bft)
27.11.2015 10:35 2,0 C 92 % 1020,5 hPa 0,0 mm W 270 1,6 km/h (1 Bft)
27.11.2015 10:40 1,8 C 92 % 1020,4 hPa 0,0 mm W 270 1,6 km/h (1 Bft)
27.11.2015 10:45 1,9 C 92 % 1020,4 hPa 0,0 mm W 270 1,6 km/h (1 Bft)
27.11.2015 10:50 2,0 C 92 % 1020,3 hPa 0,0 mm N 0 0,0 km/h (0 Bft)
27.11.2015 10:55 2,1 C 92 % 1020,3 hPa 0,0 mm W 270 1,6 km/h (1 Bft)
27.11.2015 11:00 2,1 C 92 % 1020,3 hPa 0,0 mm W 270 1,6 km/h (1 Bft)
27.11.2015 11:05 2,2 C 92 % 1020,1 hPa 0,0 mm W 270 1,6 km/h (1 Bft)
27.11.2015 11:10 2,3 C 92 % 1020,1 hPa 0,0 mm W 270 3,2 km/h (1 Bft)
27.11.2015 11:15 2,4 C 92 % 1020,0 hPa 0,0 mm W 270 3,2 km/h (1 Bft)
27.11.2015 11:20 2,5 C 92 % 1019,9 hPa 0,0 mm W 270 3,2 km/h (1 Bft)
27.11.2015 11:25 2,6 C 92 % 1019,9 hPa 0,0 mm W 270 3,2 km/h (1 Bft)
27.11.2015 11:30 2,6 C 92 % 1019,9 hPa 0,0 mm W 270 4,8 km/h (1 Bft)
27.11.2015 11:35 2,7 C 91 % 1019,8 hPa 0,0 mm W 270 4,8 km/h (1 Bft)
27.11.2015 11:40 2,7 C 92 % 1019,7 hPa 0,0 mm O 90 8,0 km/h (2 Bft)
27.11.2015 11:45 2,7 C 91 % 1019,6 hPa 0,0 mm O-SO 112 6,4 km/h (2 Bft)
27.11.2015 11:50 2,8 C 91 % 1019,6 hPa 0,0 mm O-SO 112 8,0 km/h (2 Bft)
27.11.2015 11:55 2,9 C 91 % 1019,5 hPa 0,0 mm O 98 8,0 km/h (2 Bft)
27.11.2015 12:00 2,9 C 91 % 1019,6 hPa 0,0 mm O-SO 103 4,8 km/h (1 Bft)
27.11.2015 12:05 2,9 C 91 % 1019,5 hPa 0,0 mm O 100 8,0 km/h (2 Bft)
27.11.2015 12:10 2,9 C 91 % 1019,4 hPa 0,0 mm O-SO 121 6,4 km/h (2 Bft)
27.11.2015 12:15 2,9 C 91 % 1019,4 hPa 0,0 mm O-SO 107 8,0 km/h (2 Bft)
27.11.2015 12:20 3,0 C 91 % 1019,3 hPa 0,0 mm O 101 8,0 km/h (2 Bft)
27.11.2015 12:25 2,9 C 91 % 1019,3 hPa 0,0 mm O 86 8,0 km/h (2 Bft)
27.11.2015 12:30 3,0 C 91 % 1019,2 hPa 0,0 mm O 92 4,8 km/h (1 Bft)
27.11.2015 12:35 2,9 C 91 % 1019,1 hPa 0,0 mm SO 125 6,4 km/h (2 Bft)
27.11.2015 12:40 2,9 C 91 % 1019,1 hPa 0,0 mm O 101 4,8 km/h (1 Bft)
27.11.2015 12:45 2,9 C 91 % 1019,0 hPa 0,0 mm SO 128 6,4 km/h (2 Bft)
27.11.2015 12:50 2,9 C 91 % 1018,9 hPa 0,0 mm O 98 8,0 km/h (2 Bft)
27.11.2015 12:55 2,9 C 91 % 1018,9 hPa 0,0 mm O-SO 104 8,0 km/h (2 Bft)
27.11.2015 13:00 2,9 C 91 % 1018,8 hPa 0,0 mm O 87 8,0 km/h (2 Bft)
27.11.2015 13:05 2,9 C 91 % 1018,8 hPa 0,0 mm O 94 6,4 km/h (2 Bft)
27.11.2015 13:10 2,9 C 91 % 1018,6 hPa 0,0 mm O 93 4,8 km/h (1 Bft)
27.11.2015 13:15 2,9 C 91 % 1018,2 hPa 0,0 mm O 93 3,2 km/h (1 Bft)
27.11.2015 13:20 3,0 C 90 % 1018,2 hPa 0,0 mm SO 134 3,2 km/h (1 Bft)
27.11.2015 13:25 3,0 C 90 % 1018,1 hPa 0,0 mm SO 129 4,8 km/h (1 Bft)
27.11.2015 13:30 3,1 C 90 % 1018,0 hPa 0,0 mm SO 129 3,2 km/h (1 Bft)
27.11.2015 13:35 3,2 C 90 % 1018,3 hPa 0,0 mm O-SO 109 4,8 km/h (1 Bft)
27.11.2015 13:40 3,4 C 89 % 1018,1 hPa 0,0 mm O-SO 109 4,8 km/h (1 Bft)
27.11.2015 13:45 3,4 C 89 % 1018,0 hPa 0,0 mm SO 127 6,4 km/h (2 Bft)
27.11.2015 13:50 3,2 C 89 % 1018,0 hPa 0,0 mm O-SO 117 6,4 km/h (2 Bft)
27.11.2015 13:55 3,2 C 88 % 1018,0 hPa 0,0 mm SO 136 6,4 km/h (2 Bft)
27.11.2015 14:00 3,3 C 89 % 1018,0 hPa 0,0 mm O-SO 107 6,4 km/h (2 Bft)
27.11.2015 14:05 3,2 C 89 % 1018,0 hPa 0,0 mm O-NO 63 12,9 km/h (3 Bft)
27.11.2015 14:10 3,1 C 88 % 1018,0 hPa 0,0 mm O-NO 72 9,7 km/h (2 Bft)
27.11.2015 14:15 3,1 C 88 % 1017,9 hPa 0,0 mm NO 39 4,8 km/h (1 Bft)
27.11.2015 14:20 3,1 C 88 % 1017,9 hPa 0,0 mm N-NO 24 4,8 km/h (1 Bft)
27.11.2015 14:25 3,0 C 88 % 1017,7 hPa 0,0 mm O 98 8,0 km/h (2 Bft)
27.11.2015 14:30 2,9 C 89 % 1017,6 hPa 0,0 mm O 92 8,0 km/h (2 Bft)
27.11.2015 14:35 2,9 C 89 % 1017,6 hPa 0,0 mm O 85 8,0 km/h (2 Bft)
27.11.2015 14:40 2,8 C 89 % 1017,6 hPa 0,0 mm O-NO 69 8,0 km/h (2 Bft)
27.11.2015 14:45 2,8 C 89 % 1017,6 hPa 0,0 mm O-NO 74 6,4 km/h (2 Bft)
27.11.2015 14:50 2,8 C 89 % 1017,5 hPa 0,0 mm NO 38 8,0 km/h (2 Bft)
27.11.2015 14:55 2,7 C 89 % 1017,4 hPa 0,0 mm O 84 6,4 km/h (2 Bft)
27.11.2015 15:00 2,7 C 89 % 1017,4 hPa 0,0 mm O-NO 71 8,0 km/h (2 Bft)
27.11.2015 15:05 2,8 C 88 % 1017,4 hPa 0,0 mm N-NO 30 6,4 km/h (2 Bft)
27.11.2015 15:10 2,8 C 89 % 1017,3 hPa 0,0 mm N-NO 30 4,8 km/h (1 Bft)
27.11.2015 15:15 2,8 C 89 % 1017,4 hPa 0,0 mm NO 53 4,8 km/h (1 Bft)
27.11.2015 15:20 2,8 C 89 % 1017,4 hPa 0,0 mm O-NO 63 4,8 km/h (1 Bft)
27.11.2015 15:25 2,8 C 89 % 1017,4 hPa 0,0 mm N 5 8,0 km/h (2 Bft)
27.11.2015 15:40 2,7 C 89 % 1017,2 hPa 0,0 mm O 80 4,8 km/h (1 Bft)
27.11.2015 15:45 2,6 C 89 % 1017,2 hPa 0,0 mm O 88 4,8 km/h (1 Bft)
27.11.2015 15:50 2,6 C 89 % 1017,3 hPa 0,0 mm O 88 3,2 km/h (1 Bft)
27.11.2015 15:55 2,6 C 89 % 1017,2 hPa 0,0 mm O 88 1,6 km/h (1 Bft)
27.11.2015 16:00 2,6 C 89 % 1017,2 hPa 0,0 mm O 88 1,6 km/h (1 Bft)
27.11.2015 16:05 2,6 C 89 % 1017,2 hPa 0,0 mm NO 48 4,8 km/h (1 Bft)
27.11.2015 16:10 2,5 C 88 % 1017,1 hPa 0,0 mm NO 40 6,4 km/h (2 Bft)
27.11.2015 16:15 2,4 C 88 % 1017,1 hPa 0,0 mm NO 55 6,4 km/h (2 Bft)
27.11.2015 16:20 2,4 C 88 % 1017,1 hPa 0,0 mm NO 36 6,4 km/h (2 Bft)
27.11.2015 16:25 2,3 C 88 % 1017,1 hPa 0,0 mm O-NO 77 6,4 km/h (2 Bft)
27.11.2015 16:30 2,3 C 88 % 1017,1 hPa 0,0 mm O 96 4,8 km/h (1 Bft)
27.11.2015 16:35 2,3 C 88 % 1017,1 hPa 0,0 mm O 96 3,2 km/h (1 Bft)
27.11.2015 16:40 2,2 C 88 % 1017,0 hPa 0,0 mm O 97 1,6 km/h (1 Bft)
27.11.2015 16:45 2,2 C 88 % 1017,0 hPa 0,0 mm O-SO 107 4,8 km/h (1 Bft)
27.11.2015 16:50 2,1 C 89 % 1017,0 hPa 0,0 mm O-SO 106 3,2 km/h (1 Bft)
27.11.2015 16:55 2,1 C 89 % 1016,9 hPa 0,0 mm O-NO 78 6,4 km/h (2 Bft)
27.11.2015 17:00 2,1 C 89 % 1016,9 hPa 0,0 mm O-SO 119 4,8 km/h (1 Bft)
27.11.2015 17:05 2,0 C 89 % 1017,0 hPa 0,0 mm O-SO 122 4,8 km/h (1 Bft)
27.11.2015 17:10 2,0 C 89 % 1017,1 hPa 0,0 mm O-SO 121 4,8 km/h (1 Bft)
27.11.2015 17:15 2,0 C 89 % 1017,1 hPa 0,0 mm O-SO 109 4,8 km/h (1 Bft)
27.11.2015 17:20 1,9 C 90 % 1017,0 hPa 0,0 mm O-SO 109 4,8 km/h (1 Bft)
27.11.2015 17:25 1,9 C 90 % 1017,0 hPa 0,0 mm O-NO 69 4,8 km/h (1 Bft)
27.11.2015 17:30 1,9 C 90 % 1017,0 hPa 0,0 mm O-NO 69 3,2 km/h (1 Bft)
27.11.2015 17:35 1,9 C 90 % 1017,0 hPa 0,0 mm O 93 4,8 km/h (1 Bft)
27.11.2015 17:40 1,8 C 90 % 1017,0 hPa 0,0 mm O 99 6,4 km/h (2 Bft)
27.11.2015 17:45 1,8 C 90 % 1016,9 hPa 0,0 mm O 98 3,2 km/h (1 Bft)
27.11.2015 17:50 1,8 C 90 % 1016,9 hPa 0,0 mm O 98 4,8 km/h (1 Bft)
27.11.2015 17:55 1,8 C 90 % 1016,9 hPa 0,0 mm O 101 3,2 km/h (1 Bft)
27.11.2015 18:00 1,7 C 90 % 1016,9 hPa 0,0 mm O 93 4,8 km/h (1 Bft)
27.11.2015 18:05 1,7 C 90 % 1016,9 hPa 0,0 mm O 93 1,6 km/h (1 Bft)
27.11.2015 18:10 1,7 C 90 % 1016,9 hPa 0,0 mm O 93 1,6 km/h (1 Bft)
27.11.2015 18:15 1,7 C 90 % 1016,9 hPa 0,0 mm O 93 0,0 km/h (0 Bft)
27.11.2015 18:20 1,7 C 90 % 1016,8 hPa 0,0 mm O 93 0,0 km/h (0 Bft)
27.11.2015 18:25 1,7 C 90 % 1016,8 hPa 0,0 mm O 93 0,0 km/h (0 Bft)
27.11.2015 18:30 1,7 C 90 % 1016,8 hPa 0,0 mm O 93 0,0 km/h (0 Bft)
27.11.2015 18:35 1,6 C 90 % 1016,7 hPa 0,0 mm O 93 0,0 km/h (0 Bft)
27.11.2015 18:40 1,6 C 90 % 1016,7 hPa 0,0 mm O 93 1,6 km/h (1 Bft)
27.11.2015 18:45 1,6 C 90 % 1016,7 hPa 0,0 mm O 93 1,6 km/h (1 Bft)
27.11.2015 18:50 1,6 C 90 % 1016,7 hPa 0,0 mm O-SO 107 3,2 km/h (1 Bft)
27.11.2015 18:55 1,6 C 91 % 1016,6 hPa 0,0 mm O-SO 107 1,6 km/h (1 Bft)
27.11.2015 19:00 1,5 C 91 % 1016,6 hPa 0,0 mm O-SO 107 0,0 km/h (0 Bft)
27.11.2015 19:05 1,5 C 91 % 1016,6 hPa 0,0 mm O-SO 107 0,0 km/h (0 Bft)
27.11.2015 19:10 1,4 C 91 % 1016,7 hPa 0,0 mm O-SO 107 1,6 km/h (1 Bft)
27.11.2015 19:15 1,4 C 91 % 1016,5 hPa 0,0 mm O-SO 107 0,0 km/h (0 Bft)
27.11.2015 19:20 1,4 C 91 % 1016,5 hPa 0,0 mm O-SO 107 0,0 km/h (0 Bft)
27.11.2015 19:25 1,4 C 91 % 1016,5 hPa 0,0 mm O-SO 107 0,0 km/h (0 Bft)
27.11.2015 19:30 1,3 C 91 % 1016,5 hPa 0,0 mm O-SO 107 0,0 km/h (0 Bft)
27.11.2015 19:35 1,3 C 91 % 1016,4 hPa 0,0 mm O-SO 107 0,0 km/h (0 Bft)
27.11.2015 19:40 1,3 C 91 % 1016,4 hPa 0,0 mm O-SO 107 0,0 km/h (0 Bft)
27.11.2015 19:45 1,3 C 91 % 1016,4 hPa 0,0 mm O-SO 107 0,0 km/h (0 Bft)
27.11.2015 19:50 1,3 C 91 % 1016,3 hPa 0,0 mm O-SO 107 0,0 km/h (0 Bft)
27.11.2015 19:55 1,3 C 91 % 1016,3 hPa 0,0 mm O-SO 107 0,0 km/h (0 Bft)
27.11.2015 20:00 1,3 C 91 % 1016,3 hPa 0,0 mm O-SO 107 0,0 km/h (0 Bft)
27.11.2015 20:05 1,2 C 91 % 1016,3 hPa 0,0 mm O-SO 107 0,0 km/h (0 Bft)
27.11.2015 20:10 1,2 C 91 % 1016,2 hPa 0,0 mm O-SO 107 0,0 km/h (0 Bft)
27.11.2015 20:15 1,2 C 91 % 1016,0 hPa 0,0 mm O-SO 107 0,0 km/h (0 Bft)
27.11.2015 20:20 1,2 C 91 % 1016,0 hPa 0,0 mm O-SO 107 0,0 km/h (0 Bft)
27.11.2015 20:25 1,2 C 91 % 1015,9 hPa 0,0 mm O-SO 107 0,0 km/h (0 Bft)
27.11.2015 20:30 1,2 C 91 % 1015,8 hPa 0,0 mm O-SO 107 1,6 km/h (1 Bft)
27.11.2015 20:35 1,1 C 91 % 1015,8 hPa 0,0 mm O-SO 107 0,0 km/h (0 Bft)
27.11.2015 20:40 1,1 C 91 % 1015,7 hPa 0,0 mm O-SO 107 0,0 km/h (0 Bft)
27.11.2015 20:45 1,1 C 91 % 1015,8 hPa 0,0 mm O-SO 107 0,0 km/h (0 Bft)
27.11.2015 20:50 1,1 C 91 % 1015,7 hPa 0,0 mm O-SO 107 0,0 km/h (0 Bft)
27.11.2015 20:55 1,1 C 91 % 1015,7 hPa 0,0 mm O-SO 107 0,0 km/h (0 Bft)
27.11.2015 21:00 1,0 C 91 % 1015,7 hPa 0,0 mm O-SO 107 0,0 km/h (0 Bft)
27.11.2015 21:05 1,0 C 91 % 1015,7 hPa 0,0 mm O-SO 107 0,0 km/h (0 Bft)
27.11.2015 21:10 0,9 C 91 % 1015,6 hPa 0,0 mm O-SO 107 0,0 km/h (0 Bft)
27.11.2015 21:15 0,9 C 91 % 1015,6 hPa 0,0 mm O-SO 107 0,0 km/h (0 Bft)
27.11.2015 21:20 0,9 C 91 % 1015,6 hPa 0,0 mm O-SO 107 0,0 km/h (0 Bft)
27.11.2015 21:25 0,9 C 91 % 1015,6 hPa 0,0 mm O-SO 107 0,0 km/h (0 Bft)
27.11.2015 21:30 0,9 C 91 % 1015,6 hPa 0,0 mm O-SO 107 0,0 km/h (0 Bft)
27.11.2015 21:35 0,9 C 91 % 1015,7 hPa 0,0 mm O-SO 107 0,0 km/h (0 Bft)
27.11.2015 21:40 0,9 C 91 % 1015,6 hPa 0,0 mm O-SO 107 0,0 km/h (0 Bft)
27.11.2015 21:45 0,9 C 91 % 1015,6 hPa 0,0 mm O-SO 107 0,0 km/h (0 Bft)
27.11.2015 21:50 0,9 C 91 % 1015,5 hPa 0,0 mm O-SO 107 0,0 km/h (0 Bft)
27.11.2015 21:55 0,9 C 91 % 1015,5 hPa 0,0 mm O-SO 107 0,0 km/h (0 Bft)
27.11.2015 22:00 0,9 C 91 % 1015,4 hPa 0,0 mm O-SO 107 0,0 km/h (0 Bft)
27.11.2015 22:05 0,9 C 91 % 1015,3 hPa 0,0 mm O-SO 107 0,0 km/h (0 Bft)
27.11.2015 22:10 0,9 C 91 % 1015,3 hPa 0,0 mm O-SO 107 0,0 km/h (0 Bft)
27.11.2015 22:15 0,9 C 91 % 1015,3 hPa 0,0 mm O-SO 107 0,0 km/h (0 Bft)
27.11.2015 22:20 0,9 C 92 % 1015,3 hPa 0,0 mm O-SO 107 0,0 km/h (0 Bft)
27.11.2015 22:25 0,9 C 92 % 1015,2 hPa 0,0 mm O-SO 107 0,0 km/h (0 Bft)
27.11.2015 22:30 0,9 C 91 % 1015,1 hPa 0,0 mm O-SO 107 0,0 km/h (0 Bft)
27.11.2015 22:35 0,9 C 91 % 1015,0 hPa 0,0 mm O-SO 107 0,0 km/h (0 Bft)
27.11.2015 22:40 0,9 C 91 % 1014,9 hPa 0,0 mm O-SO 107 0,0 km/h (0 Bft)
27.11.2015 22:45 0,9 C 91 % 1014,9 hPa 0,0 mm O-SO 107 0,0 km/h (0 Bft)
27.11.2015 22:50 0,9 C 91 % 1014,9 hPa 0,0 mm O-SO 107 0,0 km/h (0 Bft)
27.11.2015 22:55 0,9 C 91 % 1014,8 hPa 0,0 mm O-SO 107 0,0 km/h (0 Bft)
27.11.2015 23:00 0,9 C 91 % 1014,9 hPa 0,0 mm O-SO 107 0,0 km/h (0 Bft)
27.11.2015 23:05 0,9 C 91 % 1014,8 hPa 0,0 mm O-SO 107 0,0 km/h (0 Bft)
27.11.2015 23:10 0,9 C 91 % 1014,8 hPa 0,0 mm O-SO 107 0,0 km/h (0 Bft)
27.11.2015 23:15 0,9 C 91 % 1014,9 hPa 0,0 mm O-SO 107 0,0 km/h (0 Bft)
27.11.2015 23:20 0,8 C 91 % 1014,8 hPa 0,0 mm O-SO 107 0,0 km/h (0 Bft)
27.11.2015 23:25 0,8 C 91 % 1014,8 hPa 0,0 mm O-SO 107 0,0 km/h (0 Bft)
27.11.2015 23:30 0,9 C 91 % 1014,8 hPa 0,0 mm O-SO 107 0,0 km/h (0 Bft)
27.11.2015 23:35 0,9 C 91 % 1014,8 hPa 0,0 mm O-SO 107 0,0 km/h (0 Bft)
27.11.2015 23:40 0,9 C 91 % 1014,8 hPa 0,0 mm O-SO 107 0,0 km/h (0 Bft)
27.11.2015 23:45 0,8 C 91 % 1014,9 hPa 0,0 mm O-SO 107 0,0 km/h (0 Bft)
27.11.2015 23:50 0,9 C 91 % 1014,9 hPa 0,0 mm O-SO 107 0,0 km/h (0 Bft)
27.11.2015 23:55 0,8 C 91 % 1014,9 hPa 0,0 mm O-SO 107 0,0 km/h (0 Bft)
_ Min-Zeit 23:15 13:55 22:55 - - - 00:15
Minimum _ 0,8 C 88 % 1014,8 hPa - - - 0,0 km/h (0 Bft)
_ Max-Zeit 13:40 00:00 01:45 00:00 - - 14:05
Maximum _ 3,4 C 92 % 1021,9 hPa 0,0 mm - - 12,9 km/h
O (3 Bft)
Durchschnitt _ 1,7 C 91 % 1018,9 hPa #0,0 mm N - 2,0 km/h (1 Bft)